This is the latest recevied weather packets stored in our database for station/object VU3ZAG-WX. If no packets are shown the sender has not sent any weather packets the latest 10 day(s).
| Time | Temp. | Humidity | Pressure | Rain* | Wind** | Luminosity | Snow |
|---|---|---|---|---|---|---|---|
| 1777854972 | 33.33° C | 61% | 1007.8 hPa | - | - | - | - |
| 1777854367 | 33.33° C | 61% | 1007.8 hPa | - | - | - | - |
| 1777853762 | 32.78° C | 62% | 1007.7 hPa | - | - | - | - |
| 1777853157 | 32.78° C | 62% | 1007.7 hPa | - | - | - | - |
| 1777852552 | 32.22° C | 66% | 1007.6 hPa | - | - | - | - |
| 1777851945 | 32.78° C | 65% | 1007.6 hPa | - | - | - | - |
| 1777851340 | 32.78° C | 61% | 1007.6 hPa | - | - | - | - |
| 1777850734 | 32.78° C | 63% | 1007.6 hPa | - | - | - | - |
| 1777850129 | 32.78° C | 65% | 1007.6 hPa | - | - | - | - |
| 1777849524 | 32.78° C | 66% | 1007.6 hPa | - | - | - | - |
| 1777848917 | 32.78° C | 64% | 1007.6 hPa | - | - | - | - |
| 1777848312 | 32.78° C | 66% | 1007.6 hPa | - | - | - | - |
| 1777847706 | 33.33° C | 62% | 1007.7 hPa | - | - | - | - |
| 1777847099 | 33.33° C | 62% | 1007.7 hPa | - | - | - | - |
| 1777846494 | 33.33° C | 60% | 1007.7 hPa | - | - | - | - |
| 1777845888 | 33.33° C | 63% | 1007.8 hPa | - | - | - | - |
| 1777845283 | 33.33° C | 64% | 1007.8 hPa | - | - | - | - |
| 1777844676 | 33.89° C | 63% | 1007.9 hPa | - | - | - | - |
| 1777844071 | 33.89° C | 64% | 1008 hPa | - | - | - | - |
| 1777843465 | 33.89° C | 59% | 1008.1 hPa | - | - | - | - |
| 1777842858 | 33.89° C | 61% | 1008.2 hPa | - | - | - | - |
| 1777842252 | 34.44° C | 63% | 1008.3 hPa | - | - | - | - |
| 1777841647 | 34.44° C | 59% | 1008.5 hPa | - | - | - | - |
| 1777841041 | 35° C | 57% | 1008.6 hPa | - | - | - | - |
| 1777840436 | 34.44° C | 55% | 1008.8 hPa | - | - | - | - |
* Rain since midnight (hover to see other rain measurements)
** Current wind speed in m/s (hover to see current wind gust speed)